Regional Weather Roundup
Issued by NWS

Home | Current Version | Previous Version | Text Only | Print | Product List | Glossary Off
Versions: 1 2 3 4 5 6 7 8 9 10 11 12 13 14 15 16 17 18 19 20 21 22 23 24 25 26

000
ASUS45 KCYS 241510
RWRWY

WYOMING REGIONAL WEATHER ROUNDUP
NATIONAL WEATHER SERVICE CHEYENNE WY
900 AM MDT FRI OCT 24 2014

NOTE:  "FAIR" INDICATES FEW OR NO CLOUDS BELOW 12,000 FEET
WITH NO SIGNIFICANT WEATHER AND/OR OBSTRUCTIONS TO VISIBILITY.

WYZ001-241600-
YELLOWSTONE NATIONAL PARK

CITY           SKY/WX    TMP DP  RH WIND       PRES   REMARKS
LK YELLOWSTONE   N/A     43  31  62 MISG      30.24
W YELLOWSTONE  NOT AVBL

$$
WYZ002>013-054>058-071-098>099-241600-
NORTHERN WYOMING

CITY           SKY/WX    TMP DP  RH WIND       PRES   REMARKS
JACKSON        PTSUNNY   45  32  61 SW7       30.20R
CODY           CLOUDY    61  34  36 CALM      30.06
GREYBULL       CLOUDY    40  28  62 CALM      30.04R
WORLAND        PTSUNNY   45  29  53 CALM      30.04R
SHERIDAN       CLOUDY    45  32  60 S7        30.05R
BUFFALO        CLOUDY    58  25  28 NW7       30.07R
GILLETTE       CLOUDY    54  29  38 CALM      30.04R
HULETT         FAIR      48  32  53 SW3       30.06
NEWCASTLE      FAIR      50  30  46 CALM      30.06

$$
WYZ014>020-022>026-101>103-241600-
CENTRAL WYOMING

CITY           SKY/WX    TMP DP  RH WIND       PRES   REMARKS
BIG PINEY      MOSUNNY   34  25  69 CALM      30.27R
PINEDALE       MOSUNNY   34  30  86 NW3       30.28
DUBOIS         FAIR      46  23  39 NW12G24   30.16R
LANDER         MOSUNNY   48  25  40 W8        30.12R
RIVERTON       MOSUNNY   47  25  42 CALM      30.13R
CASPER         MOSUNNY   56  31  38 SW17G24   30.12R
DOUGLAS        CLOUDY    52  31  44 CALM      30.10R HAZE

$$
WYZ021-027>030-104>119-241600-
SOUTHERN WYOMING

CITY           SKY/WX    TMP DP  RH WIND       PRES   REMARKS
EVANSTON       SUNNY     50  23  34 SW10      30.27R
KEMMERER       MOSUNNY   45  27  49 SW5       30.28R
FORT BRIDGER   FAIR      53  23  31 SW10      30.29R
ROCK SPRINGS   MOSUNNY   48  29  47 CALM      30.26R
DIXON          FAIR      44  35  69 CALM      30.33R
RAWLINS        MOSUNNY   54  29  38 SW6       30.27R
SARATOGA       FAIR      48  32  53 SE5       30.31R
LARAMIE        PTSUNNY   54  26  34 SW18G26   30.27R
CHEYENNE       CLOUDY    58  28  32 W8        30.22R
TORRINGTON     CLOUDY    61  34  36 W8        30.08R
PINE BLUFFS    FAIR      54  34  47 W8        30.15R

$$



USA.gov is the U.S. government's official web portal to all federal, state and local government web resources and services.